GEFSSE_con_cape1000_114.txt.gz
Probability
81 94 100 100 100 100 100 100 100 100 100 100 100 100 100 100 97 97 97 94 87 81 71 65 61 58 61 61 61 65 74 74 81 81 81 84 77 84 87 84 77 65 87
90 97 100 100 100 100 100 100 100 100 100 100 100 100 100 97 97 94 90 90 87 74 71 74 68 71 68 61 68 71 74 84 81 84 84 84 81 84 87 87 71 81 87
90 100 100 100 100 100 100 100 100 100 100 100 100 100 100 100 94 97 94 87 84 77 71 68 68 68 71 71 74 74 77 81 81 81 77 61 77 84 87 87 84 87 87
94 100 100 100 100 100 100 100 100 100 100 100 100 100 97 97 97 87 87 90 90 77 81 68 68 71 68 68 74 74 77 77 81 74 42 58 68 84 90 90 90 90 97
100 100 100 100 100 100 100 100 100 100 100 100 100 100 100 94 94 84 84 84 87 81 84 74 68 74 74 71 77 81 77 77 77 23 23 52 74 77 87 94 94 94 97
100 100 100 100 100 100 100 100 100 100 100 100 100 100 100 97 87 87 90 90 84 87 90 90 81 77 77 77 77 84 81 71 19 10 26 48 68 81 84 90 94 97 97
100 100 100 100 100 100 100 100 100 100 100 100 100 100 100 97 94 90 94 84 87 94 94 87 71 71 68 68 65 84 81 48 10 13 29 45 81 97 90 90 94 94 97
100 100 100 100 100 100 100 100 100 100 100 100 100 100 97 97 94 90 87 87 94 100 94 84 74 65 71 71 74 77 68 26 13 10 35 58 94 94 90 90 97 97 90
100 100 100 100 100 100 100 100 100 100 100 100 100 100 100 97 94 90 94 90 94 90 94 84 71 68 68 71 71 74 71 32 6 23 35 77 87 90 90 87 97 97 94
100 100 100 100 100 100 100 100 100 100 100 100 100 100 100 100 94 94 94 94 87 87 90 77 71 65 81 84 84 77 71 29 13 23 52 81 94 94 87 77 84 97 97
100 100 100 100 100 100 100 100 100 100 100 100 100 100 97 90 87 90 94 94 87 84 71 71 74 74 77 77 87 71 55 6 13 26 52 74 90 87 84 84 81 81 84
94 97 100 100 100 100 100 100 100 100 100 100 100 94 74 58 58 84 90 90 77 77 74 74 84 61 26 29 55 45 19 10 13 23 45 81 90 84 84 87 87 81 77
87 97 97 100 100 100 97 97 97 97 94 90 87 74 55 45 55 58 65 61 65 65 48 48 32 13 10 13 10 6 10 10 19 26 48 87 90 84 74 77 81 74 77
71 87 87 94 94 87 94 94 84 84 74 74 65 55 35 32 29 35 35 42 35 13 13 6 6 6 6 6 6 6 10 19 19 26 48 90 94 87 81 74 74 74 77
58 61 77 84 81 71 77 87 81 74 68 58 55 39 26 19 23 26 26 16 10 6 3 3 3 3 6 6 10 10 10 19 26 23 48 84 90 94 90 87 74 77 74
42 48 65 71 65 58 55 58 58 55 52 45 42 39 23 13 16 19 19 6 3 6 3 6 3 0 0 10 16 16 13 19 23 32 42 68 84 90 90 84 81 65 74
29 35 42 55 58 48 52 52 48 45 42 39 32 29 23 16 19 16 16 3 3 3 3 3 6 3 3 0 10 13 16 13 19 32 39 61 77 81 90 87 87 87 84
16 23 32 48 35 39 35 35 35 35 35 29 29 26 26 19 16 13 10 3 3 3 3 0 0 0 0 0 3 3 10 13 13 26 32 35 52 58 71 87 87 90 84
26 19 19 26 29 26 19 16 16 16 23 16 19 23 23 19 10 6 3 0 0 3 0 3 0 0 0 0 0 0 0 6 13 13 23 29 29 39 52 55 77 87 87
23 13 16 19 23 13 10 16 13 13 10 16 19 10 13 13 10 6 3 3 0 3 0 0 0 0 0 0 0 0 0 3 6 6 6 16 16 19 19 26 39 52 71
29 26 19 13 16 13 10 16 10 13 10 10 10 10 10 10 10 10 10 3 0 0 0 0 0 0 0 0 0 0 0 0 0 0 0 6 13 13 19 19 23 26 29
23 23 16 19 19 6 10 10 10 10 6 10 6 6 10 10 10 10 6 6 3 0 0 0 0 0 0 0 0 0 0 0 0 0 0 6 6 10 19 16 19 23 19
29 26 19 16 16 13 13 10 6 3 3 3 0 6 6 10 10 10 3 3 0 0 0 0 0 0 0 0 0 0 0 0 0 0 0 0 0 10 10 16 13 10 10
29 19 19 16 16 13 6 6 6 6 6 3 3 3 3 3 10 6 3 3 0 0 0 0 0 0 0 0 0 0 0 0 0 0 0 0 0 0 0 0 3 6 6
16 16 13 13 13 13 13 6 6 6 6 3 3 0 3 3 6 6 3 3 0 0 0 0 0 0 0 0 0 0 0 0 0 0 0 0 0 0 0 0 0 3 3
13 16 13 13 10 6 10 13 6 6 6 3 0 0 0 0 3 3 3 3 0 0 0 0 0 0 0 0 0 0 0 0 0 0 0 0 0 0 0 0 0 0 0

GEFSSE_con_cape1000_120.txt.gz
Probability
26 61 100 100 100 100 100 100 100 100 100 100 97 100 100 97 94 90 87 81 81 65 65 61 61 68 68 68 68 68 77 81 74 74 71 71 71 74 77 68 81 68 81
45 87 100 100 100 100 100 100 100 100 100 100 100 100 100 97 94 94 90 81 74 68 68 65 65 65 61 68 71 71 71 81 81 77 77 74 77 74 71 68 84 74 81
55 94 97 100 100 100 100 100 100 100 100 100 100 100 100 94 90 90 84 81 77 71 71 71 65 68 68 68 74 71 77 74 77 71 65 58 71 81 77 87 84 84 84
68 90 97 100 100 100 100 100 100 100 100 100 100 100 94 94 87 84 84 84 74 74 74 77 74 71 71 68 74 81 77 71 71 61 35 26 45 77 87 94 87 77 77
74 100 100 100 100 100 100 100 100 100 100 100 100 97 94 87 84 84 90 90 81 81 77 81 81 77 74 81 87 87 84 74 58 32 26 48 77 87 87 90 84 84 90
94 100 100 100 100 100 100 100 100 100 100 100 100 100 94 84 84 87 94 87 90 94 90 77 87 74 74 84 84 87 84 55 35 13 39 58 68 87 81 84 90 90 87
87 94 100 100 100 100 100 100 100 100 100 100 100 97 97 90 90 90 87 87 97 87 84 77 74 68 68 74 81 81 68 32 16 13 39 52 74 84 77 84 81 87 90
81 94 100 100 100 100 100 100 100 100 100 100 100 94 90 94 97 87 87 81 87 87 74 81 71 71 77 84 87 81 55 29 3 3 10 58 84 87 74 84 84 84 90
71 94 100 100 100 100 100 100 100 100 100 100 100 97 97 94 90 87 84 94 94 90 81 81 65 61 81 87 90 84 35 29 6 13 3 61 81 81 74 87 81 84 94
87 90 100 100 100 100 100 100 100 100 100 100 100 100 94 94 94 94 94 94 87 81 74 74 65 61 74 71 84 87 32 13 3 3 19 55 87 87 74 71 81 90 94
94 94 97 94 100 100 97 100 100 100 100 97 97 97 97 94 90 94 90 90 84 74 68 74 74 71 71 74 84 65 35 23 10 13 35 81 87 71 65 71 74 81 90
100 100 100 94 100 97 94 100 100 100 100 94 97 97 94 90 90 87 90 87 77 68 71 74 68 52 61 61 48 55 39 29 19 13 48 87 84 68 68 65 65 68 77
97 97 100 100 100 94 100 100 100 100 100 100 100 97 97 97 87 87 90 90 90 74 71 71 45 45 52 77 65 39 29 23 29 19 55 77 87 71 77 61 68 68 71
97 97 100 100 97 94 100 100 100 100 100 100 100 97 94 94 90 90 90 81 81 81 81 58 58 52 68 58 32 45 35 23 26 42 87 74 81 81 65 71 74 68 68
97 94 90 94 94 97 100 100 97 97 94 100 100 100 90 87 84 81 87 81 65 61 71 77 58 68 68 61 29 32 35 39 39 39 68 77 74 84 65 68 68 61 68
90 90 94 90 90 90 90 97 97 94 100 94 100 97 87 81 84 84 87 90 77 68 58 55 58 68 65 55 48 52 39 35 42 45 55 81 77 74 71 61 58 71 74
87 90 90 87 87 84 87 87 94 97 97 97 94 94 84 81 84 87 81 87 74 68 74 68 61 55 55 52 45 39 45 48 52 52 45 55 71 81 74 74 74 68 68
90 90 87 71 84 81 84 84 90 97 90 94 90 90 84 77 84 87 74 68 87 68 71 71 61 39 45 39 45 35 45 58 39 45 45 52 48 42 74 74 81 77 71
90 87 87 77 77 74 81 90 97 97 94 87 87 81 84 81 77 84 81 81 84 65 65 55 61 48 39 35 39 48 42 48 55 32 32 29 45 52 55 81 81 81 68
87 84 81 77 77 77 81 87 90 87 84 87 90 87 84 81 81 81 77 84 68 65 74 68 68 71 61 48 10 16 26 32 29 45 32 32 52 42 39 32 61 58 71
84 81 84 84 87 77 68 71 74 74 77 77 77 77 81 81 81 87 71 81 81 68 58 52 48 39 35 35 19 16 19 16 23 35 32 35 26 32 39 42 39 55 58
84 84 87 74 71 68 58 61 68 74 77 77 71 81 77 81 84 74 81 77 81 81 68 58 61 35 32 26 19 23 19 19 35 13 35 29 26 42 32 32 48 65 65
81 81 65 74 71 68 68 61 58 65 61 52 65 74 77 77 74 77 71 74 84 58 58 71 58 48 26 26 19 16 13 6 16 3 16 19 42 48 35 29 32 39 42
77 71 71 74 74 61 61 52 48 52 42 42 61 68 68 68 68 71 65 71 71 45 55 45 32 35 39 29 16 19 26 6 10 6 16 6 29 32 26 13 13 23 32
71 68 68 68 74 65 58 58 61 48 55 52 52 55 61 61 61 52 58 65 58 52 45 42 39 39 32 26 16 16 19 23 10 10 6 10 19 23 29 26 23 23 39
71 65 65 68 77 68 55 52 61 61 42 45 52 48 48 52 48 42 42 58 58 39 45 45 45 39 35 29 23 19 19 16 10 10 13 19 26 10 19 23 16 13 19

GEFSSE_con_cape1000_126.txt.gz
Probability
68 84 100 100 100 100 100 100 100 100 100 100 100 100 97 94 90 87 81 84 77 77 65 61 58 61 61 61 68 71 71 71 81 81 77 77 74 65 71 77 77 68 81
74 90 100 100 100 100 100 100 100 100 100 100 100 100 100 94 87 84 77 74 74 71 65 68 65 65 68 68 68 71 74 77 74 68 77 74 74 68 68 74 84 74 81
84 94 100 100 100 100 100 100 100 100 100 100 100 100 97 94 90 77 74 77 81 71 68 68 61 71 68 71 71 71 71 68 71 74 71 35 65 71 71 77 84 77 77
77 87 100 100 100 100 100 100 100 100 100 100 100 100 90 90 84 77 74 77 77 74 71 71 71 68 65 68 74 65 55 52 58 58 29 26 32 71 77 81 87 84 81
77 90 100 100 100 100 100 100 100 100 100 100 97 94 90 90 87 87 84 81 84 81 74 77 77 77 71 77 65 61 58 55 61 52 35 42 65 74 81 84 81 74 74
94 100 100 100 100 100 100 100 100 100 100 97 97 94 90 90 97 97 90 84 90 87 90 84 84 84 81 61 55 48 52 45 52 39 48 45 81 77 77 81 77 77 77
97 100 100 100 100 100 100 100 100 100 100 100 100 94 94 94 97 94 94 97 90 87 84 84 77 81 71 58 48 39 42 55 52 35 55 68 81 87 84 84 90 87 87
97 97 100 100 100 100 100 100 100 100 100 100 97 97 94 100 94 94 94 94 90 84 81 77 77 77 74 61 48 39 35 58 35 32 42 48 90 90 81 81 87 90 87
94 97 100 100 100 100 100 100 100 100 100 100 100 97 94 97 94 94 97 94 94 90 87 87 77 74 74 52 39 29 39 77 26 32 26 48 84 84 81 84 87 90 87
90 97 100 100 100 100 100 100 100 100 100 100 100 97 97 94 94 94 94 94 94 84 81 84 71 68 71 52 42 35 45 61 16 19 19 58 84 81 77 77 81 87 81
90 94 100 100 100 100 100 100 100 100 100 100 100 94 97 97 87 94 94 97 87 81 71 65 74 61 68 39 35 29 32 29 16 26 19 87 84 74 71 68 77 84 84
94 94 94 94 94 97 97 100 100 100 100 100 100 97 100 100 97 90 97 97 87 87 81 68 61 68 61 39 35 42 45 23 23 32 42 87 81 77 61 68 77 74 74
90 90 90 90 90 94 97 97 100 100 100 100 100 100 100 97 94 94 94 97 100 90 81 74 71 58 65 58 65 52 45 19 26 26 58 84 84 74 55 55 71 74 61
90 87 90 90 90 87 87 97 97 100 100 100 100 100 100 100 100 100 100 97 97 97 90 81 94 71 74 81 84 61 48 32 39 32 68 87 87 84 68 61 61 65 58
90 90 94 84 87 87 87 90 94 100 100 100 100 100 100 100 100 97 100 100 94 97 97 100 97 84 87 94 71 58 55 58 48 35 55 84 90 87 81 68 52 55 68
87 87 87 81 84 87 87 90 94 97 100 100 100 100 100 100 100 100 100 100 97 97 97 100 90 90 100 100 94 77 68 52 71 48 39 77 81 84 81 65 65 58 58
90 90 81 84 81 84 84 87 87 97 94 100 100 100 100 100 100 94 100 97 97 94 90 94 97 90 94 87 94 87 84 77 68 71 48 52 65 77 84 77 71 71 68
94 90 84 84 77 74 77 84 87 94 94 94 100 100 94 94 90 94 100 97 94 90 97 94 94 94 94 87 90 87 90 97 84 81 77 68 55 35 71 81 81 84 77
90 94 84 84 74 74 74 84 90 87 94 94 100 94 94 90 90 90 94 94 90 90 87 74 87 90 84 84 84 90 87 97 87 77 81 74 68 65 48 68 87 87 81
94 94 87 84 74 71 74 81 87 94 90 90 97 94 94 90 90 90 87 87 87 90 90 94 90 97 94 90 55 61 77 90 84 87 77 77 74 65 58 39 68 74 90
94 94 84 84 81 77 77 81 77 74 84 94 87 87 90 94 90 90 94 94 90 90 90 87 84 90 81 84 81 74 74 71 71 81 77 77 58 77 74 68 55 52 45
94 90 94 84 84 77 81 81 81 77 81 84 84 84 84 90 87 71 94 94 94 90 87 87 84 87 74 68 74 65 52 45 68 35 77 84 65 68 77 68 77 77 61
90 94 90 90 84 84 84 77 65 68 71 77 81 77 81 84 87 94 94 94 90 90 90 87 90 68 71 74 71 65 39 19 39 58 58 52 74 71 68 68 71 74 65
90 87 94 90 84 81 84 77 65 58 58 77 77 77 84 81 87 87 81 84 90 94 97 77 77 77 61 61 71 68 58 48 32 29 39 48 52 71 65 39 42 68 68
87 87 87 87 90 77 77 77 71 55 55 65 71 74 71 81 77 81 81 87 84 84 90 81 84 71 74 77 74 55 52 52 29 26 16 32 42 61 71 61 61 58 65
84 84 77 87 90 81 74 71 74 58 55 55 68 68 68 71 71 74 74 81 81 81 74 71 68 55 55 68 68 61 45 48 32 26 16 26 32 52 58 71 71 71 65

GEFSSE_con_cape1000_132.txt.gz
Probability
77 90 100 100 100 100 100 97 97 100 100 100 100 100 100 100 97 97 94 90 87 84 71 81 81 84 84 81 90 90 84 84 71 81 87 84 84 90 90 90 81 55 71
77 94 100 100 100 100 100 100 100 100 100 100 100 100 100 97 97 97 90 87 84 84 77 74 77 71 77 81 90 81 81 84 81 77 81 84 84 90 87 81 68 61 77
84 100 100 100 100 100 100 100 100 100 100 100 100 100 100 100 97 97 87 87 87 84 77 87 77 68 74 74 77 77 81 81 84 74 58 39 71 87 84 81 81 81 81
97 100 100 100 100 100 100 100 100 100 100 100 100 100 97 97 90 87 87 87 84 77 84 84 74 74 71 74 65 74 81 71 65 61 6 19 48 77 84 81 77 81 81
90 97 100 100 100 100 100 100 100 100 100 100 100 100 100 94 97 97 97 87 87 84 84 84 81 77 74 71 68 81 84 68 61 19 13 13 29 77 84 77 81 81 81
90 100 100 100 100 100 100 100 100 100 100 100 100 100 100 97 97 94 97 94 90 90 87 84 81 74 65 68 61 68 74 71 26 10 13 16 39 84 87 81 81 77 81
97 100 100 100 100 100 100 100 100 100 100 100 100 100 100 100 97 94 94 90 90 90 90 90 81 68 71 55 55 61 71 71 3 10 19 19 52 90 87 81 81 84 81
100 100 100 100 100 100 100 100 100 100 100 100 100 100 100 100 100 97 94 90 94 87 87 84 81 71 71 65 71 68 74 55 13 3 13 26 81 94 87 87 90 81 84
100 100 100 100 100 100 100 100 100 100 100 100 100 100 100 97 100 97 97 97 94 87 87 84 71 61 58 74 71 74 81 68 3 0 16 58 90 87 87 87 84 90 84
97 97 100 100 100 100 100 100 100 100 100 100 100 100 100 97 100 97 97 97 90 87 87 84 68 58 68 58 71 71 84 39 3 0 13 68 90 87 87 94 90 90 77
94 97 94 94 90 94 100 100 100 100 100 100 100 100 100 87 84 94 94 97 90 90 87 84 68 58 61 48 52 77 42 0 0 0 13 77 90 84 87 94 94 87 84
81 84 87 84 90 90 97 97 97 100 100 94 94 90 71 58 58 81 100 94 87 87 87 77 71 58 26 10 16 26 3 0 0 0 39 87 90 87 84 87 90 87 87
77 84 84 81 87 87 87 87 87 81 87 84 87 87 65 52 58 55 65 84 68 71 35 52 45 16 10 0 0 0 0 0 0 3 45 77 84 87 84 87 87 81 90
68 74 77 74 71 71 81 81 84 74 77 65 74 65 48 39 39 42 42 48 26 19 16 16 6 3 0 0 3 0 0 0 0 6 39 81 84 87 87 84 87 77 77
58 65 68 65 61 52 58 61 81 65 71 65 65 55 42 35 29 29 32 26 16 16 13 6 6 3 0 3 3 3 0 0 0 6 35 81 84 94 90 87 81 77 77
58 58 58 61 52 52 45 48 58 52 52 48 55 61 48 35 29 26 29 19 16 16 10 10 3 3 0 3 3 0 0 0 0 3 16 65 81 90 87 90 87 81 71
61 58 61 55 45 42 39 45 48 48 52 48 52 52 45 35 39 29 26 23 13 13 10 6 10 3 0 3 3 3 3 0 0 6 6 23 61 84 87 87 87 84 77
61 58 61 65 42 35 42 45 42 42 48 45 45 39 45 45 32 19 23 13 10 13 6 3 6 3 3 3 3 0 0 0 0 3 3 10 10 45 77 87 87 84 87
55 55 55 52 45 39 35 42 39 26 35 39 42 42 42 45 32 19 19 13 10 10 10 10 6 3 0 0 0 0 3 3 0 0 0 0 0 10 19 61 94 90 81
58 55 45 52 52 45 39 42 32 32 26 35 42 42 32 35 29 13 16 19 10 6 6 3 3 3 3 3 6 0 0 3 3 0 0 3 3 6 6 10 48 71 84
61 61 55 52 48 48 42 42 39 32 26 23 19 19 29 32 32 16 19 10 3 3 3 3 3 3 3 3 3 0 0 3 3 3 0 0 3 6 0 6 6 10 16
71 68 61 58 55 45 42 35 29 19 13 16 19 19 26 29 23 19 13 6 3 3 3 3 3 3 0 0 0 0 0 0 0 0 0 0 0 0 0 0 0 3 0
77 71 65 61 55 48 39 32 26 13 19 16 19 16 26 26 16 13 13 6 3 3 3 0 3 3 0 0 0 0 0 0 0 0 0 0 0 0 0 0 0 3 3
74 81 65 58 52 45 39 29 29 23 19 13 13 16 19 13 16 13 10 10 6 3 0 0 3 3 0 0 0 0 0 0 0 0 0 0 0 3 0 0 0 3 0
74 74 61 58 42 42 42 39 26 19 10 10 6 6 13 13 13 16 13 6 3 3 0 0 0 0 0 0 0 0 0 0 0 0 0 0 0 0 0 0 0 0 3
74 68 65 55 48 45 42 35 29 16 6 6 6 6 10 6 6 6 13 3 3 3 3 0 0 0 0 0 0 0 0 0 0 0 0 0 0 0 0 0 0 0 0

GEFSSE_con_cape1000_138.txt.gz
Probability
35 77 100 97 97 97 97 100 100 100 100 100 100 100 100 100 100 100 97 94 94 81 84 90 90 84 87 87 77 84 77 74 71 71 77 74 81 77 77 74 68 61 81
65 87 100 100 97 100 100 100 100 100 100 100 100 100 100 100 100 94 94 90 87 81 84 87 84 81 87 81 81 81 71 77 77 68 77 68 77 81 81 68 58 65 77
87 94 100 100 100 100 100 100 100 100 100 100 100 100 100 100 100 94 94 84 81 77 77 81 84 81 81 90 81 87 77 71 71 71 68 58 68 77 74 74 77 74 81
90 94 100 100 100 100 100 100 100 100 100 100 100 100 100 100 100 94 81 81 81 77 71 77 74 77 84 87 84 87 77 77 74 61 35 48 58 71 81 77 81 81 74
90 90 97 100 100 100 100 100 100 100 100 100 100 100 100 100 100 84 84 81 77 77 77 71 84 81 87 84 81 87 84 74 71 32 29 45 71 74 74 81 84 87 87
100 100 100 100 100 100 100 100 100 100 100 100 100 100 100 97 97 87 90 90 81 77 81 77 81 77 77 77 81 87 87 81 29 19 29 45 65 74 71 81 87 87 90
97 100 97 100 100 100 100 100 100 100 100 100 100 100 100 100 100 94 97 90 84 84 84 87 77 84 74 77 77 81 84 55 10 16 26 42 71 87 77 84 81 90 87
97 97 100 100 100 100 100 100 100 100 100 100 100 100 100 97 97 94 94 94 90 90 87 87 81 81 87 87 71 81 81 42 13 16 29 48 77 84 84 77 87 90 87
97 97 97 97 97 100 100 100 100 100 100 100 100 100 100 97 97 94 94 94 90 90 84 81 74 71 81 81 81 77 71 45 6 19 26 58 81 87 84 84 84 81 84
97 97 97 97 97 97 100 100 100 100 100 100 100 100 97 97 94 97 97 97 90 84 81 81 77 71 77 81 77 74 77 32 3 10 32 74 87 87 81 84 84 77 84
97 94 90 94 97 97 100 100 100 100 100 100 100 100 97 81 81 84 90 94 84 77 77 77 81 77 81 71 77 74 52 6 6 13 32 77 84 87 87 84 81 74 81
97 90 87 84 90 97 97 100 100 97 97 100 90 90 58 55 61 84 87 90 87 84 87 87 87 55 32 39 48 45 10 13 6 16 39 74 81 84 81 77 77 74 71
81 90 84 84 87 87 90 94 90 77 77 81 71 48 45 35 48 48 61 61 61 58 35 39 29 13 3 3 6 6 6 6 3 19 39 81 87 84 84 84 74 81 77
68 84 84 84 81 77 81 87 74 71 71 65 45 35 26 26 35 39 32 29 26 10 10 10 6 0 3 3 6 3 3 3 3 16 39 71 87 87 87 84 77 84 81
52 65 81 77 74 65 58 74 71 68 58 48 32 23 16 16 23 19 23 19 10 10 6 3 3 3 6 6 6 3 3 3 6 19 42 61 77 81 74 71 65 68 71
42 52 61 68 74 52 58 45 55 48 48 42 23 23 16 13 16 10 13 16 13 10 6 3 3 3 3 3 0 3 3 3 0 13 29 52 84 87 77 74 61 55 61
29 29 48 52 45 32 32 35 39 35 32 45 32 23 19 16 10 13 13 10 13 6 3 3 3 3 3 3 0 3 6 3 0 10 19 35 55 84 90 84 81 71 55
26 19 26 42 35 19 16 19 16 16 23 23 13 16 23 19 3 6 6 6 6 6 6 0 0 6 3 3 3 3 6 3 3 3 16 23 39 52 77 81 87 84 74
19 16 16 23 26 13 13 10 10 10 6 10 6 13 19 19 16 6 6 6 3 6 6 3 3 0 3 0 3 0 0 0 3 3 10 6 19 35 42 61 84 87 71
19 16 13 16 13 10 10 10 10 6 6 3 3 3 10 19 23 3 3 3 3 3 6 0 0 3 3 3 3 3 0 0 0 0 3 6 6 16 26 29 55 68 77
16 19 19 16 13 10 6 10 10 6 6 6 3 3 6 16 10 10 10 3 3 3 3 3 3 3 3 3 3 0 0 0 0 0 0 3 3 10 10 16 26 32 39
29 16 19 16 13 13 10 6 6 6 6 6 6 6 10 13 13 10 3 6 3 3 3 3 0 3 0 0 0 0 0 0 0 0 0 0 0 6 6 3 13 10 10
35 19 26 19 19 16 10 6 3 3 6 6 6 6 6 6 10 10 6 6 3 3 3 3 0 0 3 0 0 0 0 0 0 0 0 0 0 0 0 6 6 3 6
42 32 26 19 19 19 16 19 6 6 6 6 6 6 3 6 6 6 6 6 3 3 3 3 3 3 3 0 0 0 0 0 0 0 0 0 0 0 3 0 3 3 3
39 32 26 23 23 16 16 16 13 3 3 3 3 3 3 3 3 6 6 6 3 3 3 3 3 3 0 0 0 0 0 0 0 0 0 0 0 0 0 0 3 3 0
42 39 39 26 19 16 16 13 13 6 6 3 3 3 3 3 3 3 3 3 3 3 3 3 3 3 0 0 0 0 0 0 0 0 0 0 0 0 0 0 0 0 0

GEFSSE_con_cape1000_144.txt.gz
Probability
6 26 87 94 97 100 100 100 100 100 100 100 100 100 100 100 100 100 94 94 90 84 87 84 81 81 84 81 71 71 77 77 77 81 77 74 65 65 77 71 68 55 77
6 35 97 100 100 100 100 100 100 100 100 100 100 100 100 100 100 97 94 94 84 84 77 81 81 81 84 77 77 77 77 81 81 81 77 68 61 74 74 74 77 71 74
16 58 87 100 100 100 100 100 100 100 100 100 100 100 100 100 97 94 90 87 87 81 71 77 81 81 87 81 81 71 74 77 74 71 68 58 58 71 77 81 77 81 77
23 55 71 100 100 100 100 100 100 100 100 100 100 97 97 97 97 90 84 84 81 81 74 81 77 84 90 94 87 77 74 68 68 58 52 42 52 71 81 84 77 84 77
29 65 97 100 100 100 100 100 100 100 100 100 100 97 97 97 94 84 84 87 71 71 71 77 77 84 87 71 74 77 81 68 58 52 45 48 77 81 77 77 81 81 84
39 52 94 97 100 100 100 100 100 100 100 100 100 97 100 100 94 81 77 74 74 77 74 81 74 74 84 87 77 74 74 52 39 16 32 48 68 81 81 74 81 81 81
26 48 94 97 97 100 100 100 100 100 100 100 100 100 97 97 97 90 87 74 74 74 77 84 77 81 81 87 81 77 58 39 10 19 35 58 74 90 77 81 81 84 84
26 52 97 97 97 97 100 100 100 100 100 100 100 100 100 100 100 97 90 87 74 74 77 84 87 81 81 84 81 81 58 29 3 6 26 42 77 81 71 81 74 77 77
26 58 94 94 97 97 100 100 100 100 100 100 100 100 100 97 94 97 94 87 84 87 90 87 77 81 81 84 74 71 45 29 10 16 10 45 65 81 71 81 77 71 74
45 61 87 77 90 87 94 100 100 100 100 100 100 97 97 94 90 97 97 97 87 77 77 77 74 74 84 77 81 71 39 23 10 3 16 42 81 74 71 71 77 74 65
74 74 81 71 87 71 74 97 97 100 97 97 97 97 97 94 87 97 90 90 87 77 74 77 84 74 81 74 65 58 32 19 10 10 16 61 84 77 71 74 74 74 68
87 87 84 84 74 55 65 87 97 90 100 97 94 90 94 97 97 81 94 90 84 81 84 81 84 68 71 52 65 52 26 13 16 10 35 84 84 74 77 77 71 77 71
81 90 84 81 77 68 84 84 97 94 100 94 94 94 97 87 84 90 87 90 94 81 68 71 55 39 23 45 45 26 16 13 10 10 45 68 77 77 74 74 68 68 65
77 81 74 84 87 87 84 81 87 87 87 90 100 94 87 74 81 84 90 81 84 90 81 58 71 48 42 39 32 29 19 32 10 26 77 74 74 71 71 61 58 58 65
74 87 68 87 90 97 97 94 71 87 81 90 97 90 74 68 58 71 90 87 58 58 68 84 65 77 58 48 35 32 35 29 32 19 68 74 74 71 71 61 58 58 58
84 84 84 84 87 94 97 97 87 68 94 71 77 84 81 71 61 74 74 84 71 58 55 52 58 77 61 55 55 39 32 26 35 35 48 65 68 77 68 65 48 48 45
87 87 84 84 84 87 94 94 81 74 71 74 84 84 90 74 90 74 61 77 74 68 77 65 61 55 71 55 55 42 35 39 32 35 32 52 58 68 68 61 65 58 52
74 74 81 65 77 84 84 84 71 68 71 90 87 94 94 87 90 97 61 61 71 71 65 68 42 42 52 45 39 48 45 61 42 35 32 45 52 48 55 71 71 68 52
81 77 81 77 74 77 81 77 68 65 84 94 94 84 87 90 87 84 74 74 74 68 55 45 39 45 58 55 42 52 42 52 61 42 35 39 39 48 48 74 61 68 55
84 87 81 81 77 81 81 71 61 65 68 84 84 90 94 97 94 84 77 81 71 61 71 68 74 68 61 61 29 35 45 35 45 45 42 42 42 42 48 48 61 65 65
84 81 81 84 84 81 77 71 65 61 61 68 71 71 81 84 87 90 74 84 74 71 68 42 61 52 52 48 42 42 39 32 35 42 48 45 32 32 42 52 58 55 68
84 84 84 87 87 84 81 71 74 65 58 65 61 74 68 68 90 65 81 81 71 87 81 77 77 61 39 48 52 42 35 42 58 10 42 52 35 29 35 39 48 68 58
81 81 81 87 84 87 87 81 61 74 61 58 68 71 65 68 77 77 77 74 77 71 81 84 87 84 52 52 39 42 32 26 23 23 32 35 55 58 32 39 39 48 52
77 77 81 84 84 90 87 71 68 58 52 52 65 74 68 65 74 81 71 84 81 74 81 74 52 74 65 45 42 45 26 13 13 26 26 26 39 45 42 26 29 42 55
71 74 77 87 87 81 84 81 77 68 65 61 65 71 68 65 68 65 68 71 84 74 68 77 74 77 68 58 45 45 26 29 10 10 32 23 29 29 39 45 35 45 45
74 74 74 90 90 77 81 74 77 68 65 65 71 65 65 61 58 65 52 65 71 74 68 77 81 81 71 71 71 42 42 19 26 32 19 19 32 23 29 42 42 39 42

GEFSSE_con_cape1000_150.txt.gz
Probability
26 65 94 97 97 100 100 100 100 100 100 97 100 100 97 100 97 87 90 87 87 84 77 84 81 84 77 74 74 68 81 81 68 74 71 71 68 68 68 71 68 65 81
52 81 97 100 100 100 100 100 100 100 100 100 100 100 100 94 90 87 87 81 81 77 77 84 81 77 77 71 68 65 77 81 77 74 61 68 71 68 68 68 68 77 84
55 77 94 100 100 100 100 100 100 100 100 100 100 100 100 94 90 90 77 84 84 77 74 77 81 81 71 77 81 74 77 77 74 74 61 58 68 74 77 71 68 84 81
45 77 94 100 100 100 100 100 100 100 100 100 100 100 97 94 87 74 77 84 77 71 71 77 74 81 74 68 74 81 74 61 74 68 55 35 52 71 81 81 81 81 84
81 97 100 100 100 100 100 100 100 100 100 97 97 97 97 94 87 77 77 68 77 74 74 77 74 81 77 77 74 68 65 52 71 61 45 48 55 74 74 77 77 77 84
77 87 97 97 97 97 100 100 100 100 100 97 97 97 97 94 84 71 68 74 74 71 74 74 68 71 71 68 55 52 52 61 65 39 48 68 68 77 68 77 77 81 84
68 81 97 97 97 97 97 100 100 100 97 97 97 97 100 100 94 81 77 81 81 77 77 65 65 65 68 61 45 42 52 61 55 32 55 61 77 81 81 77 77 81 77
74 87 97 97 97 97 97 97 100 100 100 100 100 100 97 94 94 87 87 81 81 81 87 65 68 65 71 58 48 52 65 68 42 32 42 58 90 94 77 77 81 74 81
71 84 94 97 97 97 97 97 100 100 100 100 100 100 100 100 100 94 87 87 77 81 77 71 71 71 68 52 48 55 55 74 39 35 29 48 81 87 74 68 77 71 71
74 81 87 94 97 94 97 97 100 100 100 100 100 100 100 97 97 94 87 90 74 77 71 65 65 68 65 52 39 52 65 58 19 16 29 52 90 84 65 58 65 55 65
77 77 77 90 94 90 84 94 100 97 100 100 97 97 100 100 100 94 81 81 84 74 68 65 68 71 65 45 45 45 52 16 19 29 26 81 90 84 65 71 68 68 61
65 58 84 71 81 84 84 94 100 97 100 100 97 97 97 97 97 87 84 81 81 81 65 74 81 68 58 39 35 45 35 29 16 29 45 87 84 81 74 71 68 65 61
48 77 55 71 81 84 94 97 100 97 100 100 94 90 94 97 97 87 90 87 90 81 71 74 87 65 48 48 55 42 45 29 19 23 58 87 81 77 68 68 74 58 55
71 61 52 74 87 94 90 97 97 97 97 97 100 94 94 97 97 97 97 97 100 100 90 87 94 87 61 55 52 55 42 45 35 35 55 81 84 81 71 68 61 58 58
87 71 71 97 97 90 97 97 94 87 90 94 97 94 94 94 97 97 97 97 97 97 97 94 100 90 87 74 52 61 58 61 45 39 42 84 81 77 71 58 58 52 55
87 90 84 90 94 94 94 97 87 84 94 94 97 94 97 97 100 100 97 100 97 97 97 97 100 97 94 84 71 71 68 68 71 52 32 74 84 81 74 65 65 58 48
94 94 90 84 90 94 94 94 84 87 77 94 97 94 90 97 100 100 100 97 94 97 97 97 87 97 94 84 77 74 74 71 74 65 55 48 61 81 74 68 68 68 52
90 90 87 71 87 87 94 94 94 81 87 94 97 100 94 97 97 100 100 97 97 100 97 97 94 97 94 94 90 77 81 84 65 71 71 58 55 29 71 77 74 74 65
94 90 94 81 87 87 94 84 81 77 84 87 90 100 100 97 100 100 100 100 97 100 94 81 94 87 90 90 84 84 81 81 77 68 68 68 65 71 45 68 90 77 61
90 94 94 90 90 90 90 84 74 71 81 87 87 97 100 100 97 100 100 100 97 100 100 97 94 100 97 94 52 48 77 81 81 68 58 68 74 68 48 35 48 61 84
94 94 90 90 87 87 81 77 81 74 71 74 87 94 94 100 100 100 97 97 94 100 97 94 90 90 90 94 87 74 74 71 81 84 71 65 61 65 61 52 39 35 35
90 94 87 87 90 87 81 84 81 84 77 74 74 90 87 94 94 84 97 100 97 97 94 90 94 90 77 87 90 65 45 42 65 42 65 65 58 65 58 48 55 61 45
90 94 84 87 90 87 84 90 81 81 84 81 74 77 77 84 87 94 97 90 94 87 94 94 97 94 77 81 84 71 45 32 39 58 61 58 58 48 45 39 48 65 52
90 87 81 84 94 87 87 87 84 71 77 81 84 77 77 84 87 84 90 84 77 77 84 87 87 94 87 81 74 81 74 68 42 35 45 35 45 55 39 26 39 55 52
94 84 81 87 90 87 90 90 87 87 84 81 84 81 81 81 81 77 84 81 84 81 84 84 77 81 84 77 74 77 68 74 65 39 10 23 32 39 42 39 42 29 32
84 87 87 94 94 90 90 90 87 90 90 81 74 74 81 77 74 77 84 81 77 81 77 77 81 81 90 87 87 81 77 74 55 39 29 23 16 35 32 39 32 32 29

GEFSSE_con_cape1000_156.txt.gz
Probability
71 84 97 97 100 100 100 100 97 100 97 97 97 100 97 97 97 97 97 97 100 100 100 97 94 94 90 90 87 90 87 90 84 84 90 81 74 74 81 84 74 71 84
84 94 97 100 100 100 100 100 100 100 100 100 100 100 100 97 94 94 97 100 100 97 94 94 94 90 94 94 90 87 94 94 87 84 87 81 74 77 74 74 74 61 77
87 94 97 100 100 100 100 100 100 100 100 100 100 100 97 97 97 97 100 97 97 94 94 94 94 90 97 97 97 87 84 84 90 81 71 39 65 77 81 81 77 81 81
87 90 97 100 100 100 100 100 100 100 100 100 100 100 97 100 100 100 97 97 97 87 87 90 87 81 81 87 94 94 90 81 77 58 13 23 42 74 84 77 81 74 81
84 97 100 100 100 100 100 100 100 100 100 100 100 100 97 94 97 94 94 97 87 87 84 81 84 77 71 81 87 81 84 71 65 32 16 16 39 77 81 81 81 77 84
90 94 100 100 100 100 100 100 100 100 100 100 100 100 100 97 94 90 97 97 84 84 77 81 74 77 77 77 68 71 71 65 35 19 19 29 32 74 71 81 87 90 81
90 94 97 100 100 100 100 100 100 100 100 100 100 100 100 100 94 94 94 87 81 84 77 71 74 71 68 65 65 65 65 65 16 13 19 26 39 81 81 84 81 87 84
94 94 97 97 97 97 100 100 100 100 100 100 100 100 100 97 97 94 90 90 84 81 77 77 68 68 77 68 65 68 71 55 19 13 16 35 65 87 81 77 77 84 81
97 97 97 97 97 97 100 100 100 100 100 100 100 100 100 100 97 94 90 87 81 77 77 71 58 55 65 68 74 71 77 55 10 16 23 42 84 87 77 77 81 77 84
94 94 94 94 97 97 97 100 100 100 100 100 100 100 100 94 94 94 94 87 84 77 71 65 45 48 68 71 58 84 74 35 6 10 19 48 90 87 77 74 74 77 77
77 87 94 94 94 90 97 97 100 100 100 100 100 100 97 65 61 94 94 94 87 71 68 58 58 55 55 52 55 61 55 13 6 6 16 81 97 84 74 71 71 65 65
65 68 87 90 90 90 97 97 90 90 94 90 84 81 52 35 42 61 94 94 90 74 77 74 74 68 45 6 16 39 6 3 3 13 26 81 84 81 77 77 55 58 65
55 71 68 74 77 65 77 77 74 68 65 68 61 58 35 32 39 45 42 65 55 61 39 52 52 35 10 3 0 0 0 3 3 13 39 87 87 90 71 68 58 61 55
45 45 42 39 58 52 58 68 61 58 61 58 48 35 29 23 26 29 26 32 32 26 23 19 10 6 10 6 0 0 0 0 0 3 19 87 87 84 77 65 58 55 55
42 42 48 52 48 52 45 48 52 58 55 52 42 35 26 23 23 26 23 29 26 16 6 6 3 3 0 3 3 0 3 3 0 10 26 84 84 81 68 58 55 52 58
35 42 48 42 42 42 39 45 45 48 45 39 39 29 26 23 19 19 19 23 26 16 13 6 3 3 0 3 3 3 3 6 6 6 13 58 84 84 77 65 61 58 48
35 39 39 42 39 32 23 29 35 32 32 39 29 26 23 16 16 13 13 13 16 10 10 6 6 0 0 0 3 3 3 3 0 0 3 13 52 81 81 74 68 58 55
39 45 48 55 32 29 26 29 35 29 26 26 13 10 16 16 13 10 13 10 10 10 10 6 6 6 0 0 0 3 3 3 3 0 0 0 3 26 68 74 68 65 55
35 39 48 55 42 35 39 32 42 32 23 19 16 13 16 13 13 13 10 10 6 6 3 3 6 3 0 0 0 3 3 3 3 0 0 0 0 0 3 48 71 68 55
45 48 48 45 39 35 35 29 29 29 23 26 19 19 13 13 13 10 10 10 10 6 6 0 0 0 0 0 3 3 3 0 3 0 0 0 0 0 0 0 35 48 65
61 55 55 45 39 35 35 26 26 23 23 26 16 19 19 16 13 10 16 10 6 6 3 3 0 0 0 0 0 0 0 0 0 0 0 0 0 0 0 0 3 6 16
68 65 58 52 35 39 39 23 23 19 19 19 16 19 16 16 16 13 13 13 13 13 6 6 0 0 0 0 0 0 0 0 0 0 0 0 0 0 3 3 0 0 0
77 68 68 68 58 48 39 32 29 26 23 19 13 16 19 19 23 23 19 13 13 13 6 3 0 0 0 0 0 0 0 0 0 0 0 0 0 0 0 6 0 0 0
68 77 71 65 65 52 42 39 35 29 26 23 16 16 16 19 26 19 13 10 13 10 6 6 0 0 0 0 0 0 0 0 0 0 0 0 0 0 0 3 6 3 0
77 77 71 68 65 58 42 35 32 26 29 16 13 23 23 16 16 19 13 10 10 10 3 6 3 0 0 0 0 0 0 0 0 0 0 0 0 0 0 0 0 0 0
81 77 71 61 65 65 45 35 35 23 23 23 19 29 29 23 19 23 23 6 6 3 3 3 3 0 0 0 0 0 0 0 0 0 0 0 0 0 0 0 0 0 0

GEFSSE_con_cape1000_162.txt.gz
Probability
42 71 87 94 97 97 100 97 97 94 97 97 97 97 97 97 97 94 94 90 87 90 84 81 81 77 74 77 77 77 84 87 87 81 77 77 77 77 74 81 68 48 74
71 84 94 100 97 97 100 100 100 100 100 100 100 100 97 94 94 90 94 97 97 94 90 84 81 84 77 81 87 84 94 84 84 81 81 68 77 84 81 74 55 55 74
77 84 97 100 100 100 100 100 100 100 100 100 97 94 94 94 97 97 97 94 90 94 90 84 87 84 81 90 87 87 81 74 71 71 74 65 74 81 68 65 68 68 65
77 84 90 100 100 100 100 100 100 100 100 100 97 94 97 97 97 94 94 90 87 90 87 90 94 87 87 94 81 81 81 71 77 65 32 42 58 68 61 68 71 74 65
84 87 97 97 100 100 100 100 97 100 100 100 97 100 100 94 94 94 94 90 87 84 84 81 87 84 87 84 84 87 81 77 65 32 26 42 61 71 65 71 68 77 77
84 90 97 97 100 100 100 100 100 100 100 100 100 97 97 94 94 94 97 94 87 84 77 81 87 84 84 77 71 71 68 68 35 23 26 32 61 77 71 61 65 77 77
77 94 97 100 100 100 100 100 100 100 100 100 100 100 97 94 97 97 94 87 84 77 81 81 84 84 81 71 65 68 68 55 10 23 29 39 61 81 81 71 77 74 84
81 97 97 97 97 97 100 100 100 100 100 100 100 100 97 97 97 97 87 84 84 81 77 74 84 81 71 65 71 74 68 52 23 16 29 42 71 90 77 71 81 77 87
90 97 97 97 97 97 100 100 100 100 100 100 100 100 97 94 94 87 87 90 84 81 74 68 71 71 74 71 74 65 71 52 10 23 26 48 74 84 81 87 81 81 77
90 94 94 97 97 97 94 97 100 100 100 100 100 97 97 94 90 90 90 90 81 81 74 71 74 71 74 74 77 77 74 35 10 13 23 48 74 74 74 77 74 81 84
90 87 84 90 90 94 97 97 100 100 100 100 97 97 90 61 71 84 94 90 84 77 71 68 68 68 71 68 74 84 45 13 13 13 23 61 71 68 65 68 68 74 74
71 81 81 77 81 84 90 87 87 87 84 74 58 48 42 35 45 74 87 90 90 81 77 74 68 68 35 19 32 39 13 16 13 10 35 77 74 65 65 71 52 58 55
42 68 68 74 71 68 74 74 71 71 65 58 45 35 32 32 29 32 29 35 39 48 29 32 29 19 10 3 6 10 10 16 16 13 32 77 74 61 61 65 55 52 52
42 58 61 48 48 45 39 65 48 48 45 45 35 26 23 23 26 23 19 23 23 16 16 16 3 3 6 10 10 10 6 10 6 13 32 68 81 71 65 55 55 48 45
29 39 48 58 45 39 29 32 39 35 35 32 23 23 13 13 13 19 16 13 19 10 10 6 6 0 0 3 10 6 10 13 6 10 26 61 84 81 68 58 52 48 39
13 23 35 39 29 26 29 23 32 26 23 16 16 16 13 6 10 6 13 16 3 10 10 6 3 3 0 0 3 6 10 13 19 16 16 45 58 71 61 55 58 48 42
10 16 23 26 19 23 26 26 26 23 19 13 13 16 13 10 10 3 3 6 3 6 10 6 6 3 0 0 0 3 3 10 19 13 6 19 52 58 71 68 68 48 42
3 10 23 32 19 16 13 13 13 10 13 13 10 13 10 13 6 6 6 6 6 6 6 3 3 3 3 3 0 0 3 0 3 6 13 6 16 35 58 65 65 65 61
3 6 13 29 26 13 10 6 10 13 13 10 10 10 6 16 10 6 6 6 6 6 3 3 3 3 3 3 3 0 3 3 3 6 3 3 6 10 19 45 61 65 55
10 10 13 19 16 10 6 6 10 10 10 10 10 13 16 10 10 6 10 6 6 6 3 3 3 3 3 3 3 3 3 3 3 3 0 0 0 0 3 10 35 48 48
26 10 13 19 16 6 10 10 10 10 10 10 13 13 13 13 13 6 10 6 6 6 3 3 3 3 3 0 0 0 0 0 0 3 0 0 0 0 0 0 3 10 23
26 23 16 19 10 6 6 10 10 10 10 13 10 10 13 10 10 10 6 6 6 6 3 3 3 3 3 0 0 0 0 0 0 0 0 0 0 0 0 0 0 0 6
39 35 29 16 13 6 10 10 19 13 10 10 10 13 13 13 10 10 10 10 6 3 3 3 3 3 3 0 0 0 0 0 0 0 0 0 0 0 0 3 3 0 0
42 35 29 23 26 19 13 19 19 16 13 10 13 13 10 10 6 6 6 6 6 0 0 0 0 0 0 0 0 0 0 0 0 0 0 0 0 0 0 0 0 6 6
45 42 32 29 32 26 23 19 19 19 10 6 10 10 10 10 6 6 6 3 3 0 0 0 0 0 0 0 0 0 0 0 0 0 0 0 0 0 0 0 0 3 3
48 45 42 35 26 19 26 23 16 16 13 6 6 10 6 6 6 3 3 3 3 3 0 0 0 0 0 0 0 0 0 0 0 0 0 0 0 0 0 0 0 0 0

GEFSSE_con_cape1000_168.txt.gz
Probability
26 29 71 81 87 90 87 90 90 94 94 94 90 90 90 87 90 94 87 87 84 87 84 84 81 71 71 71 68 68 65 71 77 74 74 68 68 61 71 65 61 42 65
23 52 84 90 94 97 97 97 94 94 94 94 90 90 90 90 94 90 90 90 87 87 87 87 77 74 71 74 68 71 68 74 77 71 71 61 61 68 68 65 68 65 61
42 55 74 97 97 97 97 97 100 94 94 90 90 90 87 87 94 97 97 94 94 90 84 81 71 74 77 65 71 74 71 87 77 77 65 55 61 65 65 58 65 74 81
42 58 77 97 97 97 97 100 100 97 94 90 94 94 94 94 94 94 90 87 87 81 81 81 71 71 77 74 81 81 81 84 74 68 39 32 48 58 55 58 61 71 71
35 61 90 97 97 97 97 100 97 97 94 94 94 94 94 97 94 94 90 94 87 77 81 81 81 81 81 87 87 81 81 71 55 42 16 39 52 65 61 55 65 68 68
39 65 90 100 100 100 97 97 100 97 94 94 97 97 94 94 94 90 84 84 81 74 74 84 81 84 84 81 71 68 71 52 45 16 32 42 45 71 65 58 61 74 77
35 55 84 100 100 100 100 97 97 94 90 90 90 90 94 94 94 94 90 87 84 84 81 87 81 81 84 77 65 61 55 48 16 23 42 42 58 77 74 71 68 68 74
35 55 90 97 97 100 100 100 97 97 94 94 94 94 90 94 94 87 84 77 77 81 71 71 77 68 68 68 65 71 52 42 19 16 29 42 81 71 74 74 81 77 71
26 55 77 77 97 97 94 100 100 100 100 97 97 90 87 87 87 87 87 77 81 74 77 74 81 68 71 81 74 61 45 32 16 23 16 42 61 71 65 65 65 68 71
45 48 58 58 77 87 90 97 100 100 100 100 94 84 90 87 87 84 87 81 84 77 81 77 77 68 71 71 68 61 48 32 16 16 35 42 71 68 61 68 58 61 68
45 52 52 61 74 81 81 90 97 100 100 100 94 87 87 77 77 81 81 94 90 81 74 71 71 65 65 71 71 68 42 16 10 13 42 58 74 65 61 58 61 61 65
42 55 68 61 74 74 68 94 100 94 94 90 90 87 90 81 84 74 84 81 81 77 77 71 68 65 42 39 48 48 23 10 16 16 48 74 65 74 65 61 58 68 55
48 61 61 71 84 74 81 84 97 97 100 94 90 87 90 84 74 68 77 81 90 74 58 71 58 23 10 29 42 23 16 10 19 16 32 61 65 52 58 55 61 65 55
42 61 68 74 87 90 84 87 90 87 87 87 97 90 84 84 77 65 77 65 65 77 77 68 61 48 48 45 42 29 29 26 19 16 61 61 74 68 65 52 55 58 45
58 68 81 87 90 90 94 77 74 90 81 84 90 87 81 65 77 65 71 68 52 74 84 77 61 58 48 52 45 35 39 29 29 23 39 55 58 74 61 48 42 48 52
65 74 87 90 90 94 90 90 71 81 90 68 84 77 74 61 65 65 81 81 61 71 68 77 52 71 55 52 42 35 35 23 35 39 42 52 61 65 65 58 48 45 52
77 81 87 90 87 90 87 77 65 55 61 65 74 90 84 61 68 68 65 65 58 71 77 77 74 61 58 52 45 39 39 35 39 42 39 58 55 52 52 52 55 52 45
87 84 90 74 81 90 94 87 65 58 58 65 71 68 68 61 71 84 65 52 68 52 58 71 68 55 55 48 58 42 48 55 35 42 39 45 48 45 45 55 48 55 52
87 94 90 94 90 84 90 90 81 77 81 65 65 65 77 61 61 71 68 71 65 52 39 42 58 58 61 65 45 58 35 42 52 45 45 45 55 55 55 61 58 61 52
94 90 84 90 94 87 87 90 90 81 77 77 77 77 81 74 58 55 65 74 55 55 65 61 81 77 74 71 23 39 45 45 52 45 42 39 48 52 52 52 55 55 55
87 87 90 84 87 87 84 84 87 71 74 68 77 74 71 65 68 81 55 77 77 61 61 42 65 68 55 61 58 45 42 35 42 55 52 45 35 35 39 48 52 52 58
90 90 94 90 87 87 81 81 84 77 65 74 65 81 87 81 68 52 71 71 74 90 77 74 84 74 42 42 45 52 42 32 61 23 45 48 29 32 32 32 52 65 55
94 94 87 90 90 84 84 81 77 77 77 74 77 84 74 68 68 81 84 77 90 77 81 90 84 87 77 68 52 45 32 32 26 13 39 32 45 52 42 42 39 58 61
90 90 90 90 87 87 84 84 84 84 74 81 84 81 77 74 77 81 84 90 94 84 94 74 61 81 81 71 65 71 61 42 39 19 29 19 29 39 35 16 23 45 55
87 87 87 87 87 84 81 81 90 90 94 71 77 87 87 87 87 77 87 84 90 84 84 77 81 84 74 74 65 58 48 61 29 45 26 13 13 13 26 32 26 26 45
84 84 84 90 94 90 87 87 90 90 94 94 94 84 90 87 87 77 81 87 84 77 81 71 71 74 71 68 55 48 45 42 45 52 45 48 42 16 26 26 23 23 26

GEFSSE_con_cape1000_174.txt.gz
Probability
26 52 81 77 81 84 87 87 90 84 87 84 81 87 84 84 81 84 81 77 74 71 68 65 65 58 65 71 65 65 68 77 77 68 74 71 68 65 61 61 52 45 65
39 55 77 87 90 87 87 90 90 90 87 87 81 81 87 84 87 81 87 84 77 71 71 68 71 68 65 61 74 68 65 71 74 65 58 55 58 55 68 81 61 52 65
39 52 77 94 94 94 94 94 90 87 84 87 87 87 90 94 97 81 81 84 81 74 65 68 71 61 68 61 61 65 61 61 68 68 61 42 48 68 74 77 71 68 65
42 48 81 97 97 94 97 94 90 87 87 94 94 87 87 90 84 81 84 84 77 71 68 65 58 65 65 68 61 65 58 55 58 61 39 42 39 52 71 71 71 61 61
71 84 94 97 97 97 97 94 94 90 90 90 87 84 84 90 90 90 87 81 71 68 65 61 58 65 71 71 65 58 58 58 55 55 35 45 45 58 58 61 68 71 68
81 84 97 97 97 97 97 97 90 90 84 87 87 84 87 87 87 81 77 74 68 61 61 65 65 61 61 65 55 48 48 58 52 32 48 55 45 65 65 61 68 71 74
71 81 84 97 97 97 97 94 90 90 84 84 81 87 87 87 84 77 74 71 61 61 61 68 68 65 61 58 52 48 42 55 45 29 52 55 65 71 68 65 68 68 74
65 71 90 94 94 97 97 94 87 84 87 87 90 87 87 84 84 77 77 74 68 61 61 65 65 65 65 61 48 42 52 58 45 29 39 39 65 81 68 68 74 71 61
61 74 84 87 94 94 97 90 87 87 94 94 90 84 87 77 71 77 77 74 71 71 71 65 65 65 58 61 52 45 61 68 42 42 29 32 74 74 68 65 71 71 65
55 61 81 74 81 87 97 97 94 94 94 94 87 84 84 74 81 81 77 81 77 74 77 71 61 55 58 58 61 52 65 65 32 42 29 45 84 71 61 61 71 74 71
45 58 58 68 84 87 84 87 94 97 94 90 90 87 84 77 81 81 77 81 81 77 77 61 61 58 68 61 55 61 58 35 32 35 42 77 87 71 61 65 65 65 71
39 39 68 61 71 77 81 90 94 90 90 90 87 87 90 84 81 58 81 77 74 71 71 61 71 68 68 39 52 65 52 29 32 42 42 90 87 71 65 71 68 58 48
45 48 58 71 74 77 94 90 94 94 97 94 90 90 94 84 74 68 77 74 81 55 58 68 65 52 48 52 55 52 45 32 32 39 65 90 81 71 61 65 68 65 58
61 58 68 74 90 97 94 94 100 97 97 87 90 94 94 90 81 87 84 81 81 87 87 77 84 74 65 52 52 55 48 32 32 42 65 87 81 77 68 65 71 65 61
71 74 84 90 94 97 97 97 90 100 84 94 90 94 94 90 84 81 81 81 77 81 84 87 81 77 74 71 61 58 45 42 45 48 42 81 81 77 68 58 68 55 55
81 87 97 100 97 97 94 97 94 87 100 94 94 90 90 90 90 87 84 87 90 94 87 81 77 87 71 71 65 71 52 45 65 48 39 61 71 74 74 65 61 55 48
87 94 100 100 100 94 94 94 81 81 87 100 97 97 94 90 94 94 90 87 90 87 84 77 84 77 81 68 65 65 61 68 65 61 55 42 48 68 71 71 65 68 52
94 100 100 97 100 100 97 94 87 84 90 100 100 100 97 94 97 97 97 90 87 84 84 87 87 77 87 74 71 68 77 81 74 68 61 65 48 32 48 68 71 65 52
100 100 100 100 100 100 100 100 87 87 87 100 94 97 97 87 94 97 97 90 90 87 84 71 90 87 90 77 68 74 81 84 81 65 71 68 68 61 42 45 68 68 55
97 100 100 100 100 100 94 94 90 90 90 87 94 90 94 97 90 94 94 97 87 87 90 90 87 84 87 84 52 55 74 77 84 68 58 55 71 68 55 42 35 48 58
97 97 100 97 94 97 90 87 87 94 94 90 90 94 97 97 97 94 90 100 97 90 94 87 87 84 84 84 81 68 68 71 58 71 65 55 55 58 52 52 35 45 35
97 97 97 94 94 94 87 90 94 94 90 90 90 94 90 100 94 77 97 94 97 97 97 94 90 90 84 81 84 77 61 52 61 32 65 61 55 45 45 48 45 45 45
97 94 90 94 94 94 87 90 87 90 90 94 90 94 97 100 94 100 100 94 97 97 97 97 94 90 84 84 84 77 52 32 55 45 45 48 61 65 58 55 45 48 45
97 94 94 94 97 90 90 90 87 84 90 94 94 94 97 100 97 94 97 90 94 94 97 90 90 87 84 74 84 87 71 65 42 32 35 42 45 55 48 29 23 48 48
97 94 94 94 94 90 90 87 87 87 97 94 94 94 100 97 94 90 90 94 97 97 94 94 90 90 81 74 77 74 65 65 55 42 23 29 35 39 45 42 35 42 35
94 94 94 94 90 90 90 94 90 90 94 94 94 94 97 100 94 94 94 94 94 97 87 87 84 84 87 87 81 77 68 58 55 45 23 26 13 19 26 35 26 23 32

GEFSSE_con_cape1000_180.txt.gz
Probability
52 65 81 77 77 71 81 84 90 90 87 94 94 94 90 87 84 84 87 87 81 81 77 74 74 81 81 84 81 77 77 84 81 77 74 71 74 71 71 68 61 52 77
58 71 84 87 94 90 94 90 94 94 87 84 90 84 87 87 90 87 87 84 77 81 81 77 81 74 81 81 74 81 74 74 81 68 65 68 68 74 74 68 58 55 77
65 74 90 94 94 94 97 94 97 90 90 84 87 87 90 87 90 90 90 77 71 81 81 84 77 71 74 77 77 74 71 68 74 71 61 29 55 71 77 71 68 68 68
61 77 87 94 94 94 94 94 94 90 90 90 90 90 87 94 87 87 87 77 77 77 84 77 77 68 58 58 61 71 77 65 61 55 13 32 29 65 68 74 71 71 71
65 81 90 97 97 97 94 94 94 94 90 90 90 90 90 87 87 87 87 77 77 77 71 65 68 61 61 52 58 68 61 58 55 23 10 10 26 74 77 81 77 81 74
68 84 87 97 97 97 97 97 97 97 94 94 94 90 90 87 90 84 81 77 74 74 71 71 71 65 65 61 65 61 61 65 39 13 13 13 29 84 84 84 81 77 71
68 87 90 97 97 97 97 97 97 97 90 90 90 90 87 90 87 87 81 81 71 71 77 71 74 65 61 65 61 58 61 52 19 6 10 13 45 87 84 81 84 74 65
71 84 94 97 97 97 97 97 97 90 90 90 90 87 90 90 90 84 81 74 65 74 81 81 71 61 61 61 52 58 58 52 26 13 13 19 65 90 81 77 84 84 77
71 81 84 94 97 97 97 97 97 94 94 94 90 90 90 84 77 81 84 74 71 68 71 77 65 61 68 65 55 61 68 58 19 13 13 26 74 84 74 74 84 77 81
68 74 81 77 81 84 90 97 97 97 94 90 90 90 87 81 81 81 81 81 81 71 65 61 65 61 65 55 58 71 71 52 10 13 13 39 77 77 81 87 84 81 77
55 61 65 61 58 61 68 90 90 90 90 90 90 90 81 45 48 77 84 84 77 71 65 55 58 55 55 65 68 68 52 13 10 10 10 58 94 90 84 87 84 81 71
39 42 45 55 52 48 74 74 65 77 71 42 45 65 39 26 32 45 87 87 74 68 61 61 71 68 52 19 23 39 16 10 6 10 16 77 90 87 90 84 81 74 71
35 42 42 45 39 52 45 45 45 39 39 35 32 29 16 16 29 26 29 48 42 45 32 45 52 35 19 6 3 0 10 6 6 6 29 90 94 90 87 84 68 65 65
26 42 42 39 35 32 39 45 39 29 29 32 26 23 19 16 16 16 13 16 16 16 16 13 10 13 10 6 6 3 6 6 3 3 23 90 87 87 84 71 65 65 58
29 32 35 32 32 29 26 29 39 35 29 29 23 19 19 16 6 13 16 16 16 13 13 10 6 6 6 6 10 6 6 6 6 3 13 94 84 84 77 68 68 61 58
32 35 32 45 32 29 23 23 26 26 23 29 23 23 13 13 6 3 6 10 13 13 10 6 6 6 6 10 10 6 3 6 6 3 10 71 84 84 84 77 71 65 61
35 45 39 42 42 39 39 32 26 23 19 19 16 26 13 16 10 13 6 10 10 10 6 10 6 3 6 6 3 3 3 6 6 3 0 16 39 74 77 81 81 71 68
39 48 52 65 48 39 35 32 26 23 16 19 19 19 19 19 10 10 10 10 3 6 10 10 3 6 6 3 3 0 3 3 6 0 0 0 10 23 58 74 74 71 61
35 45 61 52 42 35 45 26 29 29 23 23 16 23 19 19 19 10 13 10 10 6 3 6 3 3 3 3 6 6 3 0 0 6 6 3 0 0 6 39 74 71 52
45 52 61 52 42 39 32 29 29 26 23 23 23 26 16 16 16 10 13 13 13 6 6 3 3 3 3 3 3 3 3 0 0 0 6 3 3 0 3 10 26 42 48
58 55 61 61 52 39 42 35 29 29 26 26 23 23 26 19 16 13 13 13 13 13 10 10 3 3 6 0 0 0 0 0 0 0 0 0 6 0 0 3 3 10 19
71 61 61 65 65 48 45 42 35 32 26 19 19 26 29 26 13 13 13 16 13 13 13 13 6 6 3 3 0 0 0 0 0 0 0 0 0 3 3 0 0 0 3
74 84 77 74 65 58 52 48 52 39 32 29 26 26 26 29 16 16 16 16 13 10 10 10 3 3 3 3 0 0 0 0 0 0 0 0 0 0 3 6 3 0 0
81 81 81 77 68 61 52 42 42 39 32 29 26 23 26 26 23 26 16 16 13 10 10 6 10 3 3 3 0 0 0 0 0 0 0 0 0 0 0 3 3 3 0
81 87 84 84 77 68 61 55 45 39 42 35 29 23 13 26 26 26 13 10 6 13 10 10 6 3 3 3 3 3 0 0 0 0 0 0 0 0 0 0 0 0 0
81 90 87 87 84 74 68 61 55 52 45 42 39 35 29 23 23 23 26 16 13 13 6 10 6 3 3 3 3 3 3 0 0 0 0 0 0 0 0 0 0 0 0

GEFSSE_con_cape1000_186.txt.gz
Probability
19 42 65 71 77 81 84 84 84 84 87 84 87 81 84 84 74 77 77 81 84 87 84 84 74 74 71 74 77 77 74 81 81 84 71 68 74 77 77 71 65 48 74
32 52 81 77 77 77 84 81 81 87 87 84 87 90 90 90 87 84 81 84 81 77 74 77 77 71 71 74 71 74 71 74 74 68 65 55 68 68 68 61 52 48 65
45 71 77 84 87 87 84 84 84 84 84 84 90 90 84 84 90 87 87 81 81 84 77 77 68 71 68 65 65 65 68 65 74 68 61 42 61 61 68 65 61 68 65
58 68 77 84 90 90 90 90 90 84 84 84 84 84 84 84 87 81 81 84 84 81 74 74 68 71 61 65 68 68 61 61 68 58 26 35 39 58 65 71 77 71 61
58 61 77 90 90 94 97 94 90 87 87 87 87 87 87 84 81 81 77 81 81 84 74 74 71 68 61 65 65 65 74 61 65 26 13 19 45 68 65 68 74 74 68
52 68 84 90 90 94 94 97 94 94 90 87 87 87 90 84 81 77 77 77 77 81 81 81 74 65 68 52 61 65 71 58 32 16 13 19 45 61 71 77 74 74 71
48 71 87 94 94 90 90 90 94 90 87 90 87 90 90 87 84 84 81 81 77 81 77 77 74 61 65 65 61 61 68 61 16 10 13 29 45 74 68 77 77 71 65
55 74 87 90 90 87 90 94 87 97 94 90 87 90 87 84 84 87 81 74 71 74 74 77 77 68 61 58 58 65 68 39 19 13 16 32 58 81 71 74 74 74 65
68 71 77 77 81 87 90 94 94 94 94 90 90 90 87 84 84 87 84 77 71 65 68 74 68 65 68 68 52 61 65 48 13 16 16 35 71 81 65 81 68 77 68
65 74 71 74 74 77 77 90 94 94 90 90 90 90 90 84 77 81 84 74 71 74 74 65 58 68 65 65 58 58 68 52 19 16 19 39 71 71 71 77 81 81 77
61 61 65 58 52 58 61 74 81 87 90 90 90 90 74 45 48 65 71 71 71 61 58 61 65 68 55 55 61 65 45 19 19 16 19 55 71 71 77 74 77 77 71
52 55 35 32 35 45 61 55 58 61 48 39 29 32 23 19 29 45 71 65 61 58 61 61 58 55 35 23 19 26 16 13 16 19 16 58 71 68 81 81 81 77 68
26 42 39 35 29 35 35 32 23 26 26 23 23 23 19 13 13 16 19 32 32 39 29 35 29 16 19 10 10 10 6 6 13 6 16 52 68 71 74 77 77 77 68
16 32 29 29 26 19 26 29 16 16 13 16 13 16 6 0 3 3 10 13 10 13 19 19 16 10 10 6 10 6 6 6 6 10 16 55 74 77 77 77 74 74 58
13 13 16 26 26 26 13 23 29 16 13 10 10 3 3 3 3 6 6 6 13 10 13 10 6 6 10 6 6 6 10 6 6 10 16 45 81 84 77 68 71 65 58
10 13 13 13 23 13 10 10 13 13 10 10 6 6 6 3 3 3 3 6 10 10 6 6 6 3 3 10 13 10 6 10 10 6 10 35 74 84 77 71 71 68 61
6 6 10 13 6 6 10 6 16 10 6 10 10 6 6 6 3 3 3 6 3 3 3 3 3 3 3 6 6 6 10 6 10 10 6 13 35 65 71 74 71 68 61
6 10 19 26 13 6 3 6 10 10 10 10 10 10 10 10 6 6 6 3 3 3 3 6 6 6 6 3 3 6 6 10 6 16 13 16 19 23 52 71 71 65 61
10 13 16 10 13 6 10 10 13 13 13 16 6 10 10 13 10 6 6 3 3 3 3 6 6 6 6 3 6 6 6 3 3 6 10 13 3 23 29 39 65 65 55
13 13 6 6 13 10 10 10 10 10 13 6 6 6 6 10 10 3 3 3 3 3 3 3 6 3 3 3 3 6 0 0 0 0 3 3 3 3 6 13 29 45 48
13 10 10 6 6 6 16 13 13 13 13 10 6 10 10 13 6 3 6 6 6 10 6 6 10 6 3 3 3 0 0 0 0 0 0 0 0 3 3 6 10 6 13
13 13 16 13 6 6 13 19 16 23 16 10 10 16 13 13 10 10 10 6 0 3 3 3 3 3 0 0 3 0 0 0 0 0 0 0 0 0 3 3 3 6 3
26 19 29 13 6 10 16 23 19 16 13 13 16 13 13 13 10 6 6 0 0 3 3 3 6 6 6 3 0 6 0 0 0 0 0 0 0 0 0 0 0 0 0
32 32 29 13 16 10 19 29 26 23 19 13 16 13 6 10 6 3 0 0 0 3 3 3 6 3 3 3 3 0 0 0 0 0 0 0 0 0 0 0 0 0 0
39 35 35 23 19 16 32 32 26 23 19 19 13 6 6 6 6 3 6 3 3 3 0 3 3 3 3 3 3 3 0 0 0 0 0 0 0 0 0 0 0 0 0
52 45 45 32 32 32 35 32 29 26 19 19 19 16 13 16 13 16 10 6 3 3 3 3 3 3 3 3 3 0 3 3 0 0 0 0 0 0 0 0 0 0 0

GEFSSE_con_cape1000_192.txt.gz
Probability
6 26 58 58 61 55 61 68 68 61 68 71 68 77 77 74 68 74 74 71 71 68 65 71 65 71 65 65 68 71 71 68 84 77 61 65 65 65 68 65 55 48 68
13 29 61 68 68 71 65 65 71 68 77 74 71 77 81 77 68 68 71 65 68 65 58 65 65 58 61 55 61 65 65 65 58 58 58 58 58 61 52 42 55 52 74
13 32 45 74 81 84 81 77 74 77 81 77 81 81 84 84 77 74 68 65 58 55 55 58 61 52 61 52 52 58 58 61 65 52 45 39 39 55 52 48 52 68 71
13 32 52 81 87 87 84 74 77 74 81 81 77 77 74 81 77 74 68 68 71 58 58 61 52 52 52 55 55 58 58 55 55 45 32 35 35 42 55 58 65 68 65
32 39 71 87 87 84 87 81 81 74 77 77 77 81 81 81 71 68 71 68 71 71 71 65 61 55 58 55 55 55 58 55 42 26 19 39 52 61 65 68 77 71 58
35 45 71 90 84 81 84 87 81 81 81 84 84 77 81 71 71 74 71 68 65 71 68 71 61 58 55 55 52 61 61 45 29 16 23 39 48 71 68 68 74 61 58
26 35 74 90 90 90 84 84 87 87 87 84 87 81 77 71 74 71 61 65 65 65 68 68 68 55 48 48 58 61 52 26 26 23 13 35 55 71 68 65 77 68 61
16 35 77 84 87 84 84 84 84 87 84 81 84 84 74 74 74 71 68 68 61 68 68 61 58 55 55 55 58 71 52 26 19 16 13 29 55 71 68 65 74 74 65
16 26 52 71 81 84 84 84 84 81 84 84 81 77 71 74 68 71 71 61 61 61 68 61 58 55 55 55 61 61 55 26 29 32 16 35 58 71 65 65 61 68 71
32 26 45 58 68 68 77 87 87 87 90 84 84 84 81 77 61 58 68 65 65 61 65 65 58 48 45 48 58 61 35 32 29 26 32 42 65 65 71 71 77 77 61
39 45 35 42 58 58 68 68 84 87 87 87 84 77 74 77 55 55 58 58 58 52 58 58 58 45 48 52 52 55 32 29 26 26 35 45 71 65 68 74 74 65 58
32 39 48 39 52 48 52 74 84 74 74 81 81 74 74 77 61 55 61 61 65 65 55 45 39 35 35 32 55 52 32 23 19 29 32 68 68 61 65 68 74 68 61
26 32 35 42 45 52 61 58 81 81 81 77 74 77 77 55 55 61 71 74 68 52 32 39 26 26 29 42 45 32 26 16 13 19 35 65 71 68 71 71 74 68 68
35 48 35 45 65 68 77 71 77 74 74 68 84 71 65 71 65 61 77 65 61 58 58 42 55 32 29 29 29 29 19 16 19 23 61 65 68 71 65 71 74 68 71
48 52 55 71 87 94 97 97 65 71 52 61 74 68 58 52 55 58 77 65 42 48 58 58 39 52 35 32 23 23 35 39 23 23 52 65 65 71 71 65 68 68 68
58 61 81 87 84 94 97 97 81 58 81 48 58 65 65 52 52 52 68 68 55 45 39 45 35 58 39 35 32 26 39 42 39 39 35 55 68 74 71 71 65 65 55
71 87 90 90 90 97 87 77 74 68 58 55 61 81 74 61 58 61 48 55 55 52 58 55 45 45 45 35 29 32 35 35 32 42 35 45 48 58 74 68 68 68 65
81 87 87 61 84 90 97 94 74 71 71 71 68 77 77 68 65 68 65 45 61 55 55 68 52 48 48 35 26 26 32 42 39 42 45 52 61 45 55 61 58 65 68
90 94 94 84 87 90 94 97 84 94 90 74 68 68 65 68 68 65 84 74 65 61 58 55 48 52 52 45 32 48 35 42 52 35 35 48 52 58 58 61 55 61 45
90 97 94 94 94 94 90 94 97 94 87 84 77 77 77 68 68 68 65 77 52 52 71 68 71 74 58 55 26 23 35 32 35 35 32 29 42 52 48 42 68 55 55
97 100 97 100 97 94 90 90 84 87 81 81 81 77 81 65 65 81 65 77 68 71 74 61 61 58 55 58 58 58 35 35 23 42 39 29 26 35 42 58 61 58 65
94 97 97 100 100 94 94 97 97 84 84 74 81 87 77 65 68 65 81 81 77 81 81 81 87 68 48 58 58 52 42 39 61 6 32 39 39 42 39 32 52 68 68
94 97 97 97 100 100 94 94 94 90 87 74 74 84 77 71 68 77 74 87 87 81 74 81 81 84 71 61 55 45 42 42 32 23 29 26 42 42 39 39 45 45 48
87 97 97 97 100 100 97 94 90 87 74 87 90 77 77 81 77 77 77 81 87 81 87 77 61 81 84 68 68 68 55 55 45 29 35 26 32 42 32 13 29 48 45
90 94 100 100 97 100 97 94 97 90 87 81 84 90 90 81 81 68 77 87 84 84 87 81 84 84 77 71 65 65 52 68 35 48 45 35 26 29 23 32 35 42 39
94 94 97 100 97 97 97 97 97 90 87 84 87 84 84 81 77 68 71 81 81 81 81 81 84 81 84 74 68 58 52 55 58 52 48 52 45 23 16 29 26 29 35

GEFSSE_con_cape1000_198.txt.gz
Probability
26 32 55 55 58 58 55 68 65 58 61 61 65 77 68 68 61 61 61 58 58 55 61 65 65 65 68 65 68 68 71 65 68 61 65 68 65 61 61 68 65 45 81
32 39 65 61 61 65 58 61 65 65 65 61 68 68 71 68 65 61 55 55 52 52 52 58 65 55 58 61 65 61 61 65 68 61 58 48 55 48 52 58 61 58 68
29 42 58 74 71 61 58 65 68 65 68 68 74 65 68 68 71 61 58 52 52 48 52 55 58 55 58 58 58 61 68 65 58 65 58 26 39 45 61 68 65 68 65
32 42 55 71 65 65 68 68 68 68 68 74 74 74 71 71 65 71 61 52 52 52 48 55 58 52 48 52 48 45 48 48 58 61 32 10 23 42 55 61 61 61 65
39 55 65 68 68 65 65 68 65 71 74 77 77 74 68 71 65 68 65 58 48 52 52 48 52 48 45 45 52 42 42 45 52 42 32 29 29 52 55 55 55 65 61
48 52 58 81 81 74 71 65 71 68 77 81 68 68 65 61 61 61 65 55 52 55 52 45 48 48 42 45 39 39 35 39 42 23 48 45 32 71 68 55 52 58 61
35 39 58 81 81 71 71 68 68 71 65 71 68 65 61 65 65 58 58 61 52 55 55 52 52 52 45 35 32 26 32 39 45 26 42 52 65 90 77 71 71 58 61
48 48 65 87 84 71 74 65 71 71 68 65 68 61 58 58 58 61 58 55 55 61 58 55 55 45 45 42 39 39 45 42 29 32 48 42 77 84 74 68 77 68 61
29 52 55 65 77 81 84 81 74 68 74 74 65 68 65 68 58 65 58 48 58 52 61 61 52 42 35 42 39 39 48 65 52 35 16 35 84 81 74 68 68 58 52
29 35 55 68 71 77 74 84 81 77 74 68 58 61 58 61 68 65 61 58 48 55 48 42 45 48 45 58 48 48 55 55 26 39 29 42 90 81 74 65 65 65 58
42 39 39 52 71 65 55 74 81 81 81 74 61 71 68 68 55 68 58 65 55 55 55 45 42 42 48 55 48 45 45 39 26 29 35 61 87 74 68 65 68 65 65
42 35 61 55 61 45 55 87 90 68 84 81 71 81 84 74 71 48 65 68 58 52 45 52 52 42 48 39 39 55 39 35 23 26 35 87 87 77 65 68 68 65 65
35 48 58 65 74 71 77 84 87 87 81 84 84 81 81 77 71 58 61 61 65 55 42 58 48 32 39 39 48 48 42 26 23 16 45 90 84 74 68 68 65 65 58
42 48 58 81 87 90 90 87 87 81 87 84 90 81 81 81 81 84 87 74 77 65 74 61 61 55 61 58 52 52 35 29 26 29 45 77 77 74 71 68 65 65 55
48 61 77 97 97 97 97 97 84 81 77 84 90 94 87 84 84 77 81 87 81 77 81 81 77 77 65 68 55 48 45 48 42 32 32 68 77 84 74 71 65 61 68
68 87 90 97 97 97 97 94 94 87 90 90 94 87 90 90 77 81 87 94 87 87 84 84 74 74 77 74 61 65 61 48 55 61 39 58 74 77 81 74 68 65 55
84 94 94 97 97 97 94 94 94 90 84 90 90 90 90 90 90 90 90 90 94 87 87 87 87 84 74 58 61 61 61 68 65 71 55 52 45 71 81 77 77 74 71
94 97 97 84 94 97 94 94 94 94 94 90 90 94 90 94 90 90 90 87 90 87 94 94 87 74 71 68 65 58 58 84 61 68 58 68 52 42 55 74 74 77 74
97 97 94 97 97 97 94 94 94 94 94 94 94 90 94 90 87 90 94 90 94 90 94 77 84 71 68 74 65 68 61 61 68 65 68 61 68 58 48 45 68 68 65
97 97 94 97 100 97 94 94 94 94 94 94 94 94 94 90 90 94 94 90 94 90 87 84 84 74 71 77 39 35 68 61 71 58 55 55 65 55 42 42 48 55 68
97 100 97 100 100 100 97 94 94 94 90 94 94 94 94 90 90 94 90 94 94 81 81 87 84 77 68 74 71 58 65 55 52 58 68 55 45 42 42 48 42 42 35
100 97 97 97 100 100 97 100 97 97 97 97 94 97 90 87 90 68 94 90 90 81 84 87 81 77 71 68 74 65 58 61 68 32 65 58 52 48 48 45 71 68 52
100 100 97 97 97 100 100 94 97 97 97 94 97 97 90 87 90 90 87 90 90 81 84 87 87 74 68 71 81 74 61 45 55 61 68 65 65 61 61 58 55 71 61
100 100 100 97 100 100 100 97 97 97 94 94 97 97 90 87 90 94 87 94 90 87 90 94 81 84 74 65 71 74 68 68 39 45 55 58 58 61 65 45 39 55 58
90 100 100 97 100 100 100 100 97 97 97 97 97 97 94 94 90 87 87 87 90 84 90 90 94 87 87 87 74 71 61 65 45 42 29 42 48 61 58 61 61 55 52
94 100 100 97 97 100 100 100 100 97 97 97 97 94 94 90 87 90 84 84 84 87 87 87 90 87 87 94 94 84 68 52 58 39 29 29 32 35 52 55 58 55 55

GEFSSE_con_cape1000_204.txt.gz
Probability
19 45 58 55 55 61 71 68 71 65 68 71 65 68 65 65 61 65 71 65 65 68 68 65 65 68 68 71 77 74 74 74 71 65 65 61 71 71 77 74 65 48 81
26 48 65 55 65 65 74 74 77 74 74 77 68 68 68 71 71 74 65 65 61 61 61 68 68 68 68 68 68 71 77 71 68 71 68 58 61 68 71 68 45 42 71
32 39 58 68 68 74 77 71 77 77 77 74 77 74 71 74 74 65 68 55 58 61 58 61 65 68 68 65 65 65 68 74 65 65 55 29 45 71 71 71 61 71 68
32 45 55 71 71 74 77 77 77 74 77 77 74 77 81 74 74 71 68 65 52 58 61 58 61 61 61 58 55 58 65 58 65 32 3 6 26 68 74 71 71 68 61
32 45 61 71 71 77 81 81 81 84 87 84 81 81 77 71 71 71 61 58 58 52 52 55 55 55 58 55 61 65 55 52 45 16 0 3 23 68 71 71 61 61 58
32 55 65 68 71 81 84 84 84 87 87 84 77 77 74 71 77 68 68 61 65 65 52 55 48 48 45 45 48 55 48 42 29 19 6 13 23 68 71 65 61 55 65
32 52 68 81 74 84 81 81 81 77 77 74 74 77 77 71 74 65 65 65 58 61 65 61 55 42 39 35 32 39 48 35 10 3 6 10 35 81 71 84 71 65 74
45 55 65 81 84 84 81 77 81 84 84 81 77 74 71 74 71 61 65 65 65 65 65 58 48 39 48 52 42 55 58 35 19 10 10 13 61 81 77 74 71 68 71
42 48 52 61 71 84 84 84 81 84 84 77 77 77 71 74 71 65 65 61 58 61 61 48 48 45 58 52 55 48 58 45 10 6 16 26 71 90 81 81 77 65 65
26 35 42 48 52 61 68 87 81 81 77 77 77 74 74 71 68 61 65 61 58 58 48 48 39 39 52 58 48 55 58 39 16 6 10 35 84 90 84 81 77 65 55
13 23 26 42 45 42 52 74 71 77 77 81 65 71 65 45 39 48 55 65 52 48 58 52 45 48 55 52 48 61 39 16 6 6 10 58 84 87 84 84 77 74 68
6 13 13 19 26 26 52 55 55 48 45 32 35 35 29 13 6 29 61 65 55 58 52 61 58 55 32 13 16 29 13 6 3 6 13 71 84 87 84 81 74 77 81
6 16 13 16 19 19 23 29 23 26 29 26 23 26 13 6 3 16 19 45 42 45 35 42 42 23 13 6 6 6 6 6 3 10 16 81 90 87 84 77 71 77 84
10 13 13 13 16 13 13 19 16 16 26 26 19 16 6 3 3 6 6 19 13 6 10 6 3 6 6 6 6 3 3 6 6 10 19 87 94 90 84 81 74 71 61
13 13 16 16 13 10 10 13 13 19 19 10 16 16 10 6 6 0 3 0 3 6 10 6 6 10 6 6 6 6 3 3 3 10 19 81 90 94 87 81 71 58 65
19 16 19 16 19 19 16 13 3 3 3 10 13 19 16 10 6 3 6 3 3 3 6 6 6 6 6 6 6 6 6 6 6 6 10 45 84 94 90 84 81 68 65
19 19 19 23 23 16 16 16 13 6 3 3 10 13 16 10 0 3 3 3 0 0 3 6 6 6 6 6 6 6 6 6 6 6 6 13 42 81 87 81 77 71 71
16 23 29 32 29 19 19 16 16 10 6 6 10 13 16 10 10 10 10 6 3 0 6 6 6 6 3 3 3 3 3 3 3 3 6 6 6 13 55 74 74 74 74
26 23 26 23 29 29 29 23 29 16 10 6 6 10 13 10 16 10 6 6 13 6 6 10 3 3 3 3 6 3 3 3 3 3 3 3 3 3 3 42 68 77 61
29 32 23 35 39 29 29 39 29 23 26 29 10 13 16 23 10 10 6 10 13 6 6 6 3 3 3 6 6 6 6 3 3 3 3 3 0 3 3 6 26 45 58
35 35 32 39 35 39 45 42 45 35 29 39 29 29 29 32 19 13 19 16 10 10 6 3 3 3 3 6 3 3 3 0 0 0 0 3 3 3 6 0 6 10 23
42 39 52 42 32 58 58 45 45 45 39 39 39 39 39 32 23 26 19 16 13 6 3 3 3 3 3 6 3 3 3 0 0 3 0 3 3 3 3 3 3 6 3
52 42 61 58 55 61 61 55 52 39 45 48 42 45 42 42 32 26 26 23 23 10 10 10 6 6 6 3 3 3 3 3 0 3 3 3 0 0 0 6 3 3 3
58 68 65 68 74 58 61 55 58 52 48 45 39 45 48 42 35 32 26 19 19 19 16 13 10 3 3 3 3 3 3 3 3 3 3 3 0 3 3 3 3 6 3
61 65 68 71 81 74 68 58 52 48 48 42 42 45 45 42 42 42 39 35 29 19 16 13 10 3 3 3 3 6 6 6 3 3 3 3 3 6 6 6 3 0 3
74 77 81 81 77 74 77 71 65 61 58 55 58 55 52 48 42 45 52 35 35 32 29 19 6 10 3 3 6 6 6 6 6 6 6 6 6 6 6 3 3 3 6